Torna al catalogo

STARLINK-11497

AttivoComunicazioniVLEO
NORAD 62470·PAYLOAD·🇺🇸 United States

Lanciato Dec 31, 2024 da Cape Canaveral Space Force Station

Loading…

Prossimi Passaggi (prossime 24 ore)

TLE

AggiornatoSource: CelesTrak SupGP

Epoca: Sep 14, 2026, 20:44 UTC

1 62470C 24254J   26257.86437500 -.00012131  00000+0 -94241-4 0  2571
2 62470  43.0005 162.7859 0001797 251.2363  68.7049 15.70839417    17

Traccia STARLINK-11497 in tempo reale con AllMySat

Download on the App Store